• In Österreich
  • Länderverzeichnis
  • Für 7 Tage
  • Wassertemperatur
  • Satellitenkarten
  • Wetterkarte
  • News
  • Widgets
  • user-avatar
    Anmelden

    Stündliche Wetter Zukowka

    Heute, 16 Oktober, Dienstag

    Zeit Temperatur Niederschläge Wind Luftdruck Luftfeuchtigkeit
    00:00 +11°C° 0 mm 3 m/S 758 mmHg 62%
    01:00 +11°C° 0 mm 3 m/S 758 mmHg 63%
    02:00 +12°C° 0 mm 2 m/S 758 mmHg 64%
    03:00 +12°C° 0 mm 2 m/S 758 mmHg 65%
    04:00 +10°C° 0 mm 2 m/S 758 mmHg 66%
    05:00 +12°C° 0 mm 2 m/S 758 mmHg 66%
    06:00 +12°C° 0 mm 2 m/S 758 mmHg 65%
    07:00 +12°C° 0 mm 2 m/S 758 mmHg 65%
    08:00 +14°C° 0 mm 2 m/S 758 mmHg 58%
    09:00 +16°C° 0 mm 2 m/S 758 mmHg 52%
    10:00 +18°C° 0 mm 2 m/S 758 mmHg 45%
    11:00 +19°C° 0 mm 2 m/S 758 mmHg 42%
    12:00 +21°C° 0 mm 1 m/S 758 mmHg 38%
    13:00 +22°C° 0 mm 1 m/S 758 mmHg 34%
    14:00 +21°C° 0 mm 1 m/S 758 mmHg 37%
    15:00 +21°C° 0 mm 1 m/S 758 mmHg 40%
    16:00 +20°C° 0 mm 1 m/S 758 mmHg 43%
    17:00 +18°C° 0 mm 1 m/S 758 mmHg 46%
    18:00 +16°C° 0 mm 1 m/S 758 mmHg 48%
    19:00 +15°C° 0 mm 1 m/S 758 mmHg 50%
    20:00 +14°C° 0 mm 1 m/S 758 mmHg 52%
    21:00 +14°C° 0 mm 1 m/S 758 mmHg 53%
    22:00 +13°C° 0 mm 1 m/S 758 mmHg 54%
    23:00 +13°C° 0 mm 1 m/S 758 mmHg 55%

    Morgen, 17 Oktober, Mittwoch

    Zeit Temperatur Niederschläge Wind Luftdruck Luftfeuchtigkeit
    00:00 +13°C° 0 mm 1 m/S 758 mmHg 55%
    01:00 +12°C° 0 mm 1 m/S 758 mmHg 56%
    02:00 +12°C° 0 mm 1 m/S 758 mmHg 57%
    03:00 +12°C° 0 mm 1 m/S 758 mmHg 58%
    04:00 +12°C° 0 mm 1 m/S 758 mmHg 58%
    05:00 +12°C° 0 mm 1 m/S 758 mmHg 58%
    06:00 +12°C° 0 mm 1 m/S 758 mmHg 58%
    07:00 +12°C° 0 mm 1 m/S 759 mmHg 59%
    08:00 +14°C° 0 mm 2 m/S 759 mmHg 53%
    09:00 +16°C° 0 mm 2 m/S 759 mmHg 48%
    10:00 +18°C° 0 mm 2 m/S 759 mmHg 42%
    11:00 +19°C° 0 mm 2 m/S 758 mmHg 39%
    12:00 +20°C° 0 mm 2 m/S 758 mmHg 37%
    13:00 +21°C° 0 mm 2 m/S 758 mmHg 34%
    14:00 +20°C° 0 mm 2 m/S 758 mmHg 37%
    15:00 +19°C° 0 mm 2 m/S 757 mmHg 40%
    16:00 +18°C° 0 mm 2 m/S 757 mmHg 43%
    17:00 +17°C° 0 mm 2 m/S 757 mmHg 46%
    18:00 +16°C° 0 mm 2 m/S 757 mmHg 48%
    19:00 +15°C° 0 mm 2 m/S 758 mmHg 51%
    20:00 +15°C° 0 mm 2 m/S 758 mmHg 52%
    21:00 +14°C° 0 mm 2 m/S 758 mmHg 53%
    22:00 +14°C° 0 mm 2 m/S 758 mmHg 54%
    23:00 +14°C° 0 mm 2 m/S 757 mmHg 55%

    übermorgen, 18 Oktober, Donnerstag

    Zeit Temperatur Niederschläge Wind Luftdruck Luftfeuchtigkeit
    00:00 +14°C° 0 mm 2 m/S 757 mmHg 56%
    01:00 +14°C° 0 mm 1 m/S 757 mmHg 57%
    02:00 +13°C° 0 mm 1 m/S 757 mmHg 58%
    03:00 +13°C° 0 mm 1 m/S 757 mmHg 60%
    04:00 +13°C° 0 mm 1 m/S 757 mmHg 61%
    05:00 +13°C° 0 mm 1 m/S 757 mmHg 62%
    06:00 +13°C° 0 mm 1 m/S 757 mmHg 63%
    07:00 +12°C° 0 mm 0 m/S 757 mmHg 64%
    08:00 +13°C° 0 mm 0 m/S 757 mmHg 60%
    09:00 +15°C° 0 mm 0 m/S 757 mmHg 55%
    10:00 +16°C° 0 mm 0 m/S 757 mmHg 51%
    11:00 +17°C° 0 mm 0 m/S 756 mmHg 49%
    12:00 +20°C° 0 mm 1 m/S 756 mmHg 47%
    13:00 +21°C° 0 mm 1 m/S 756 mmHg 45%
    14:00 +20°C° 0 mm 1 m/S 756 mmHg 49%
    15:00 +19°C° 0 mm 1 m/S 756 mmHg 52%
    16:00 +19°C° 0 mm 1 m/S 756 mmHg 56%
    17:00 +18°C° 0 mm 1 m/S 756 mmHg 59%
    18:00 +18°C° 0 mm 1 m/S 756 mmHg 63%
    19:00 +16°C° 0 mm 2 m/S 756 mmHg 66%
    20:00 +16°C° 0 mm 2 m/S 756 mmHg 68%
    21:00 +15°C° 0 mm 2 m/S 756 mmHg 71%
    22:00 +15°C° 0 mm 2 m/S 756 mmHg 73%
    23:00 +15°C° 0 mm 2 m/S 756 mmHg 75%

    19 Oktober, Freitag

    Zeit Temperatur Niederschläge Wind Luftdruck Luftfeuchtigkeit
    00:00 +14°C° 0 mm 2 m/S 756 mmHg 77%
    01:00 +14°C° 0 mm 2 m/S 757 mmHg 79%
    02:00 +13°C° 0 mm 2 m/S 757 mmHg 80%
    03:00 +13°C° 0 mm 2 m/S 756 mmHg 82%
    04:00 +13°C° 0 mm 2 m/S 756 mmHg 83%
    05:00 +13°C° 0 mm 2 m/S 757 mmHg 84%
    06:00 +12°C° 0 mm 2 m/S 757 mmHg 85%
    07:00 +12°C° 0 mm 2 m/S 757 mmHg 86%
    08:00 +14°C° 0 mm 2 m/S 757 mmHg 80%
    09:00 +15°C° 0 mm 2 m/S 757 mmHg 74%
    10:00 +16°C° 0 mm 2 m/S 757 mmHg 68%
    11:00 +17°C° 0 mm 2 m/S 757 mmHg 66%
    12:00 +17°C° 0 mm 3 m/S 757 mmHg 65%
    13:00 +18°C° 0 mm 3 m/S 757 mmHg 63%
    14:00 +17°C° 0 mm 3 m/S 757 mmHg 67%
    15:00 +16°C° 0 mm 3 m/S 757 mmHg 71%
    16:00 +16°C° 0 mm 3 m/S 757 mmHg 75%
    17:00 +14°C° 0 mm 3 m/S 757 mmHg 78%
    18:00 +14°C° 0 mm 3 m/S 758 mmHg 80%
    19:00 +13°C° 0 mm 3 m/S 758 mmHg 83%
    20:00 +12°C° 0 mm 3 m/S 758 mmHg 84%
    21:00 +12°C° 0 mm 3 m/S 758 mmHg 86%
    22:00 +12°C° 0 mm 2 m/S 758 mmHg 87%
    23:00 +10°C° 0 mm 2 m/S 758 mmHg 87%

    20 Oktober, Samstag

    Zeit Temperatur Niederschläge Wind Luftdruck Luftfeuchtigkeit
    00:00 +10°C° 0 mm 2 m/S 758 mmHg 88%
    01:00 +9°C° 0 mm 2 m/S 759 mmHg 88%
    02:00 +8°C° 0 mm 2 m/S 758 mmHg 89%
    03:00 +8°C° 0 mm 2 m/S 758 mmHg 89%
    04:00 +7°C° 0 mm 2 m/S 758 mmHg 89%
    05:00 +7°C° 0 mm 2 m/S 759 mmHg 88%
    06:00 +7°C° 0 mm 2 m/S 759 mmHg 87%
    07:00 +7°C° 0 mm 2 m/S 759 mmHg 87%
    08:00 +8°C° 0 mm 2 m/S 759 mmHg 80%
    09:00 +10°C° 0 mm 3 m/S 759 mmHg 72%
    10:00 +11°C° 0 mm 3 m/S 759 mmHg 65%
    11:00 +12°C° 0 mm 3 m/S 759 mmHg 63%
    12:00 +12°C° 0 mm 3 m/S 759 mmHg 60%
    13:00 +13°C° 0 mm 3 m/S 759 mmHg 57%
    14:00 +12°C° 0 mm 3 m/S 758 mmHg 58%
    15:00 +12°C° 0 mm 3 m/S 758 mmHg 58%
    16:00 +11°C° 0 mm 3 m/S 758 mmHg 59%
    17:00 +10°C° 0 mm 3 m/S 758 mmHg 62%
    18:00 +9°C° 0 mm 3 m/S 758 mmHg 66%
    19:00 +9°C° 0 mm 2 m/S 759 mmHg 69%
    20:00 +8°C° 0 mm 2 m/S 759 mmHg 71%
    21:00 +8°C° 0 mm 2 m/S 759 mmHg 74%
    22:00 +8°C° 0 mm 2 m/S 759 mmHg 76%
    23:00 +8°C° 0 mm 2 m/S 759 mmHg 78%

    21 Oktober, Sonntag

    Zeit Temperatur Niederschläge Wind Luftdruck Luftfeuchtigkeit
    00:00 +8°C° 0 mm 2 m/S 758 mmHg 80%
    01:00 +8°C° 0 mm 3 m/S 758 mmHg 83%
    02:00 +7°C° 0 mm 3 m/S 758 mmHg 85%
    03:00 +7°C° 0 mm 2 m/S 758 mmHg 87%
    04:00 +7°C° 0 mm 2 m/S 758 mmHg 88%
    05:00 +7°C° 0 mm 3 m/S 758 mmHg 89%
    06:00 +7°C° 0 mm 3 m/S 758 mmHg 89%
    07:00 +7°C° 0 mm 3 m/S 758 mmHg 90%
    08:00 +8°C° 0 mm 3 m/S 759 mmHg 85%
    09:00 +9°C° 0 mm 3 m/S 759 mmHg 80%
    10:00 +10°C° 0 mm 3 m/S 759 mmHg 75%
    11:00 +11°C° 0 mm 3 m/S 759 mmHg 71%
    12:00 +11°C° 0 mm 3 m/S 759 mmHg 67%
    13:00 +12°C° 0 mm 3 m/S 758 mmHg 62%
    14:00 +12°C° 0 mm 3 m/S 758 mmHg 64%
    15:00 +13°C° 0 mm 2 m/S 758 mmHg 66%
    16:00 +12°C° 0 mm 2 m/S 758 mmHg 67%
    17:00 +12°C° 0.1 mm 2 m/S 758 mmHg 71%
    18:00 +10°C° 0.1 mm 2 m/S 759 mmHg 75%
    19:00 +9°C° 0.1 mm 2 m/S 759 mmHg 79%
    20:00 +9°C° 0 mm 2 m/S 759 mmHg 83%
    21:00 +8°C° 0 mm 2 m/S 759 mmHg 87%
    22:00 +7°C° 0 mm 2 m/S 759 mmHg 91%
    23:00 +7°C° 0 mm 2 m/S 759 mmHg 92%
    Mehr zeigen